[[{"header":{"parameterUnit":"m.s-1","parameterCategory":1,"la1":30.2991,"la2":30.254,"lo1":-89.0895,"lo2":-89.0444,"dy":0.0017,"dx":0.0017,"nx":28,"ny":28,"refTime":"2023-07-23T21:00:00:Z","depth":0,"parameterNumber":2,"parameterNumberName":"U-component_of_WINDS"},"data":[0,0,0,0,0,0,0,0,0,0,0,0,0,0,0,0,0,0,0,0,0,0,0,0,0,0,0,0,0,0,0,0,0,0,0,0,0,0,0,0,0,0,0,0,0,0,0,0,0,0,0,0,0,0,0,0,0,0,1.6836,1.6836,0,1.6901,1.6902,1.6902,1.689,1.6889,1.6888,1.6887,1.6954,1.6957,1.696,0,0,0,0,0,0,0,0,0,0,0,0,0,1.67,1.6702,1.6835,1.6836,1.6837,1.6901,1.6902,1.6902,1.689,1.6889,1.6887,1.6886,1.6953,1.6956,1.696,0,0,0,0,0,0,0,0,0,0,0,0,0,1.6761,1.6703,1.6835,1.6839,1.684,1.69,1.6902,1.6903,1.6891,1.6889,1.6887,1.6885,1.6952,1.6956,1.696,1.7022,0,0,1.6974,1.6975,0,0,0,0,0,0,0,0,1.6758,1.6766,1.6837,1.6839,1.684,1.6885,1.6878,1.6943,1.6891,1.6871,1.6887,1.6885,1.6933,1.6938,1.6955,1.7025,1.7028,1.6974,1.6977,1.6978,1.698,0,0,0,0,0,0,0,1.6753,1.6763,1.6861,1.6838,1.684,1.6837,1.6843,1.689,1.6911,1.6873,1.6872,1.688,1.6933,1.695,1.6956,1.7029,1.6974,1.6978,1.698,1.6982,1.7151,1.7153,0,0,0,0,0,0,1.6748,1.676,1.6859,1.6863,1.6794,1.6841,1.6848,1.6873,1.691,1.6915,1.6881,1.6879,1.6944,1.6951,1.6958,1.7031,1.6978,1.6982,1.6985,1.7149,1.7152,1.7154,0,0,0,0,0,0,1.6745,1.6757,1.6857,1.6811,1.6824,1.6845,1.6872,1.6875,1.6892,1.6917,1.692,1.6895,1.6943,1.6952,1.7006,1.7033,1.6984,1.6988,1.7147,1.715,1.7153,1.7178,0,0,0,0,0,0,1.6741,1.6756,1.678,1.6812,1.6826,1.6903,1.6874,1.6877,1.69,1.6897,1.6931,1.6935,1.6942,1.6999,1.701,1.7038,1.6992,1.7145,1.7148,1.7152,1.7175,1.7181,1.7187,0,0,0,0,0,1.6737,1.6785,1.6781,1.6793,1.6857,1.6905,1.6913,1.692,1.6902,1.6926,1.6941,1.6934,1.7029,1.7005,1.7017,1.7047,1.7143,1.7147,1.7151,1.7172,1.718,1.7187,0,0,0,0,0,0,1.6757,1.679,1.6786,1.6846,1.6873,1.6903,1.6933,1.6929,1.6961,1.6958,1.6965,1.6973,1.7027,1.7043,1.7015,1.7107,1.7083,1.709,1.7095,1.7103,1.7109,1.7103,1.6995,0,0,0,0,0,1.6768,1.6805,1.6831,1.6882,1.6896,1.6912,1.6933,1.6936,1.6964,1.6976,1.6995,1.7023,1.7058,1.7082,1.7116,1.7178,1.7184,1.7204,1.721,1.7215,1.722,1.7252,1.726,1.7168,1.7168,1.7168,0,0,1.6792,1.6815,1.6837,1.6887,1.6908,1.6944,1.6922,1.6962,1.6989,1.6982,1.7033,1.7048,1.7079,1.7136,1.7162,1.7151,1.7247,1.722,1.7224,1.7227,1.7257,1.7266,1.7273,1.7171,1.717,1.717,0,0,1.6854,1.6876,1.6919,1.694,1.6972,1.6982,1.6993,1.7023,1.7033,1.7084,1.7078,1.7111,1.7173,1.7195,1.7214,1.7282,1.7276,1.7294,1.7325,1.7355,1.7363,1.7369,1.7392,1.74,1.7299,1.7299,1.7299,0,1.688,1.6935,1.6942,1.6983,1.7004,1.6998,1.7041,1.7062,1.7103,1.7118,1.7105,1.7181,1.7202,1.7262,1.7279,1.7295,1.7306,1.7289,1.7361,1.7368,1.7374,1.7395,1.7404,1.7301,1.7301,1.7301,1.7301,0,1.6964,1.7003,1.7034,1.7073,1.7098,1.714,1.7152,1.7177,1.7178,1.7189,1.724,1.7265,1.7303,1.7318,1.732,1.7379,1.737,1.7359,1.7335,1.7384,1.7404,1.7413,1.7304,1.7303,1.7302,1.7302,0,0,1.7041,1.7082,1.7093,1.711,1.7144,1.7173,1.7215,1.7251,1.7271,1.73,1.7333,1.7385,1.7375,1.7396,1.74,1.7428,1.7477,1.7413,1.7413,1.7422,1.7541,1.7548,1.7558,1.7474,1.7476,1.7477,1.7538,0,1.7104,1.7176,1.7183,1.7247,1.7281,1.7276,1.7312,1.7336,1.7348,1.7379,1.7392,1.7427,1.7412,1.7424,1.7451,1.7466,1.7501,1.7462,1.7504,1.7506,1.7494,1.7568,1.7576,1.7632,1.7546,1.7548,1.7549,0,1.7188,1.7218,1.7285,1.7312,1.7327,1.7359,1.7392,1.7422,1.7449,1.7455,1.7479,1.7479,1.752,1.7495,1.7552,1.7524,1.7542,1.7552,1.7555,1.7557,1.7529,1.7571,1.7651,1.7658,1.7561,1.756,1.756,0,1.7234,1.7291,1.7338,1.7353,1.7387,1.7408,1.7424,1.7449,1.747,1.7499,1.7513,1.7547,1.7565,1.7591,1.76,1.7582,1.7655,1.7632,1.7661,1.766,1.7675,1.7674,1.7757,1.769,1.769,1.769,1.769,0,1.7303,1.7344,1.7359,1.7388,1.7433,1.744,1.7484,1.7498,1.7521,1.7551,1.755,1.7579,1.759,1.762,1.7628,1.7672,1.7681,1.7687,1.7688,1.7686,1.7684,1.7696,1.7692,1.7692,1.7692,1.7691,1.7691,0,1.7361,1.7373,1.7424,1.7451,1.7459,1.749,1.7513,1.7541,1.7552,1.7591,1.76,1.7618,1.7654,1.7665,1.7709,1.7714,1.7765,1.7764,1.7755,1.7755,1.7782,1.7779,1.7874,1.7886,1.7813,1.7814,1.7815,0,1.7403,1.7434,1.7464,1.7484,1.75,1.7533,1.7554,1.7562,1.7584,1.7617,1.764,1.7675,1.7703,1.7761,1.7777,1.781,1.7808,1.7839,1.7813,1.7809,1.7806,1.7803,1.7805,1.7844,1.7844,1.7845,1.7846,0,1.7476,1.748,1.751,1.7542,1.7567,1.7593,1.7618,1.7635,1.7647,1.7671,1.7707,1.7729,1.7773,1.7807,1.7841,1.7856,1.7852,1.7854,1.7862,1.7859,1.7852,1.7854,1.7766,1.7851,1.7851,1.785,1.785,1.785,1.7526,1.7553,1.7577,1.761,1.763,1.7653,1.7679,1.7693,1.7723,1.7759,1.7762,1.78,1.7825,1.787,1.7886,1.7916,1.7907,1.792,1.7922,1.7925,1.7926,1.7849,1.7923,1.7922,1.7922,1.7922,1.7922,0,1.7597,1.7612,1.7643,1.7677,1.7703,1.7697,1.7724,1.7746,1.7779,1.7803,1.7831,1.7871,1.7904,1.7923,1.7956,1.7976,1.7975,1.7984,1.7982,1.7985,1.7933,1.7921,1.7984,1.7984,1.7984,1.7984,1.7984,1.7984,1.7636,1.768,1.7687,1.774,1.7755,1.7792,1.7807,1.7828,1.7847,1.7892,1.7919,1.7931,1.7952,1.7986,1.8016,1.802,1.8032,1.8042,1.8045,1.7995,1.7989,1.7983,1.7972,1.8044,1.8045,1.8094,1.8095,1.8095]},{"header":{"parameterUnit":"m.s-1","parameterCategory":1,"la1":30.2991,"la2":30.254,"lo1":-89.0895,"lo2":-89.0444,"dy":0.0017,"dx":0.0017,"nx":28,"ny":28,"refTime":"2023-07-23T21:00:00:Z","depth":0,"parameterNumber":3,"parameterNumberName":"V-component_of_WINDS"},"data":[0,0,0,0,0,0,0,0,0,0,0,0,0,0,0,0,0,0,0,0,0,0,0,0,0,0,0,0,0,0,0,0,0,0,0,0,0,0,0,0,0,0,0,0,0,0,0,0,0,0,0,0,0,0,0,0,0,0,1.9398,1.9398,0,1.9379,1.9379,1.9379,1.9342,1.9342,1.9341,1.934,1.932,1.932,1.9321,0,0,0,0,0,0,0,0,0,0,0,0,0,1.9402,1.9402,1.9398,1.9398,1.9397,1.9379,1.9379,1.9379,1.9342,1.9341,1.9341,1.934,1.932,1.932,1.9321,0,0,0,0,0,0,0,0,0,0,0,0,0,1.9393,1.9402,1.9398,1.9377,1.9375,1.9379,1.9379,1.9378,1.9343,1.9341,1.934,1.9339,1.932,1.932,1.9321,1.9343,0,0,1.9321,1.9321,0,0,0,0,0,0,0,0,1.9394,1.9393,1.938,1.9379,1.9376,1.9362,1.9373,1.9367,1.9343,1.9355,1.934,1.9339,1.9335,1.9334,1.9333,1.9342,1.9341,1.9321,1.9321,1.9321,1.9322,0,0,0,0,0,0,0,1.9394,1.9394,1.939,1.938,1.9378,1.9368,1.9366,1.9371,1.9351,1.9354,1.9351,1.9349,1.9334,1.9333,1.9332,1.9341,1.9321,1.9321,1.9322,1.9322,1.9366,1.9367,0,0,0,0,0,0,1.9398,1.9394,1.9391,1.939,1.9383,1.9369,1.9367,1.9368,1.9351,1.9347,1.935,1.9348,1.9333,1.9332,1.9331,1.9355,1.9321,1.9322,1.9322,1.9365,1.9367,1.9368,0,0,0,0,0,0,1.9398,1.9398,1.9392,1.9391,1.939,1.937,1.9372,1.9368,1.9367,1.9348,1.9344,1.9353,1.9332,1.9331,1.934,1.9354,1.9322,1.9322,1.9364,1.9366,1.9367,1.9404,0,0,0,0,0,0,1.9399,1.9398,1.9407,1.9392,1.939,1.9401,1.9373,1.9368,1.9367,1.9364,1.935,1.9347,1.9331,1.934,1.934,1.9353,1.9322,1.9363,1.9365,1.9367,1.9401,1.9406,1.9411,0,0,0,0,0,1.9399,1.9418,1.9408,1.9408,1.94,1.9402,1.9401,1.9383,1.9368,1.9377,1.9365,1.9347,1.9353,1.9341,1.9341,1.9355,1.9362,1.9364,1.9367,1.9399,1.9405,1.9411,0,0,0,0,0,0,1.9436,1.9416,1.9404,1.9419,1.9413,1.9396,1.9406,1.9391,1.9388,1.9385,1.9362,1.936,1.9371,1.9364,1.9352,1.9375,1.9354,1.9357,1.9379,1.9385,1.939,1.939,1.9322,0,0,0,0,0,1.9446,1.9449,1.9432,1.9447,1.9444,1.9426,1.9426,1.9413,1.9405,1.9402,1.9391,1.9384,1.9383,1.9384,1.9383,1.94,1.9396,1.941,1.9414,1.9419,1.9421,1.9427,1.9433,1.9376,1.9376,1.9376,0,0,1.9466,1.9456,1.9459,1.9454,1.9447,1.9451,1.9424,1.9429,1.9431,1.9403,1.941,1.9402,1.9392,1.9405,1.941,1.94,1.9435,1.9422,1.9425,1.9425,1.943,1.9436,1.9441,1.9377,1.9377,1.9377,0,0,1.9505,1.9498,1.9509,1.9503,1.9493,1.9481,1.9484,1.9469,1.9462,1.947,1.9448,1.945,1.9451,1.9445,1.9442,1.9478,1.9461,1.9478,1.9503,1.951,1.9514,1.9518,1.9529,1.9534,1.948,1.9481,1.9481,0,1.9531,1.9536,1.9517,1.9523,1.9521,1.9495,1.9506,1.9501,1.9491,1.949,1.9478,1.9478,1.947,1.948,1.9489,1.9488,1.9489,1.9479,1.9515,1.9519,1.9522,1.9533,1.9537,1.9483,1.9482,1.9482,1.9482,0,1.9568,1.9572,1.9582,1.9573,1.9572,1.9581,1.9562,1.9563,1.955,1.9539,1.9546,1.9535,1.9531,1.9533,1.952,1.9541,1.9534,1.952,1.9498,1.953,1.9539,1.9543,1.9486,1.9485,1.9484,1.9484,0,0,1.9629,1.9609,1.9613,1.9608,1.9595,1.9597,1.9605,1.96,1.9601,1.9596,1.96,1.9601,1.9587,1.9583,1.957,1.9576,1.9603,1.956,1.9559,1.9567,1.9624,1.9634,1.9639,1.9592,1.9593,1.9593,1.9624,0,1.9664,1.9674,1.9657,1.9671,1.9674,1.9649,1.9655,1.9648,1.9637,1.9637,1.9626,1.9626,1.9608,1.9606,1.9611,1.9599,1.9614,1.9596,1.9595,1.9595,1.9596,1.9644,1.9655,1.9684,1.9628,1.9628,1.9629,0,1.9705,1.9701,1.9716,1.9701,1.9701,1.9707,1.9701,1.9702,1.9693,1.9685,1.9681,1.9664,1.9669,1.965,1.9655,1.9644,1.9642,1.9636,1.9637,1.9635,1.9613,1.9642,1.9693,1.9697,1.9634,1.9634,1.9634,0,1.9746,1.9745,1.9753,1.975,1.9733,1.9737,1.9731,1.972,1.9719,1.9714,1.9712,1.9708,1.9705,1.9702,1.9685,1.9672,1.9692,1.9671,1.9684,1.9685,1.9688,1.9688,1.9739,1.969,1.969,1.969,1.969,0,1.9786,1.9795,1.9771,1.9776,1.9785,1.9765,1.9775,1.9766,1.9757,1.9759,1.9738,1.974,1.9718,1.9718,1.9704,1.971,1.971,1.9702,1.9698,1.9703,1.9704,1.9701,1.9698,1.9691,1.9691,1.9691,1.9691,0,1.9832,1.9817,1.9823,1.9807,1.9803,1.9811,1.9797,1.98,1.9789,1.9791,1.9791,1.9772,1.9771,1.9753,1.9748,1.9739,1.975,1.9743,1.9753,1.975,1.9763,1.9762,1.9812,1.9817,1.9767,1.9768,1.9768,0,1.9858,1.9865,1.9849,1.9849,1.9843,1.9844,1.9842,1.9822,1.9821,1.981,1.9815,1.9812,1.9808,1.9806,1.9792,1.9787,1.9779,1.9797,1.9778,1.9783,1.9777,1.9777,1.9776,1.9801,1.9802,1.9802,1.9803,0,1.9904,1.9896,1.9894,1.9889,1.9888,1.9883,1.9877,1.9878,1.9856,1.9856,1.9854,1.9851,1.9845,1.9842,1.9835,1.9827,1.9811,1.9809,1.9811,1.9816,1.9821,1.9816,1.9762,1.9807,1.9807,1.9807,1.9806,1.9806,1.994,1.9944,1.9934,1.9932,1.9925,1.992,1.9922,1.9911,1.9909,1.9903,1.9891,1.9891,1.988,1.9869,1.9863,1.9862,1.9852,1.9856,1.9857,1.9858,1.986,1.9822,1.986,1.986,1.986,1.986,1.986,0,1.9984,1.9976,1.9975,1.9967,1.9965,1.9951,1.9943,1.9942,1.9942,1.9934,1.9931,1.9928,1.9924,1.991,1.9904,1.9906,1.9898,1.9905,1.9904,1.9902,1.9869,1.9867,1.9911,1.9911,1.9911,1.9911,1.9911,1.9911,2.0007,2.0012,2.0003,2.0005,1.9997,1.9996,1.9993,1.9987,1.9981,1.9979,1.9975,1.9966,1.9955,1.9948,1.9944,1.994,1.9938,1.9947,1.994,1.991,1.9905,1.99,1.9897,1.9947,1.9948,1.9973,1.9973,1.9973]}]]